When you browse on this site, cookies collect data to enhance your experience and personalize the content and advertising you see.
Visit our Privacy Policy to learn more. By continuing to use the site, you agree to this use of cookies and data.
  • In Hungary
  • List of Countries
  • For 7 days
  • Water Temperature
  • Weather Map
  • News
  • Weather Widgets
  • user-avatar
    Login

    Hourly Weather Chuprovo

    Today, 19 September, Thursday

    Time Temperature Precipitation Wind Pressure Humidity
    00:00 +4°C° 0 mm 3 mps 734 mmHg 97%
    01:00 +4°C° 0 mm 3 mps 735 mmHg 97%
    02:00 +4°C° 0 mm 3 mps 735 mmHg 97%
    03:00 +4°C° 0 mm 3 mps 736 mmHg 94%
    04:00 +4°C° 0 mm 3 mps 736 mmHg 92%
    05:00 +5°C° 0 mm 3 mps 737 mmHg 89%
    06:00 +5°C° 0 mm 4 mps 738 mmHg 88%
    07:00 +5°C° 0 mm 4 mps 738 mmHg 86%
    08:00 +5°C° 0 mm 4 mps 739 mmHg 85%
    09:00 +5°C° 0 mm 4 mps 739 mmHg 82%
    10:00 +5°C° 0 mm 4 mps 740 mmHg 80%
    11:00 +5°C° 0 mm 4 mps 740 mmHg 78%
    12:00 +7°C° 0.1 mm 3 mps 741 mmHg 74%
    13:00 +7°C° 0.1 mm 3 mps 741 mmHg 70%
    14:00 +7°C° 0.1 mm 3 mps 742 mmHg 66%
    15:00 +7°C° 0 mm 2 mps 742 mmHg 68%
    16:00 +6°C° 0 mm 2 mps 742 mmHg 69%
    17:00 +7°C° 0 mm 1 mps 742 mmHg 70%
    18:00 +6°C° 0 mm 1 mps 743 mmHg 73%
    19:00 +5°C° 0 mm 1 mps 743 mmHg 75%
    20:00 +3°C° 0 mm 0 mps 743 mmHg 78%
    21:00 +4°C° 0 mm 1 mps 743 mmHg 78%
    22:00 +3°C° 0 mm 1 mps 743 mmHg 79%
    23:00 +3°C° 0 mm 1 mps 743 mmHg 79%

    Tomorrow, 20 September, Friday

    Time Temperature Precipitation Wind Pressure Humidity
    00:00 +3°C° 0 mm 1 mps 744 mmHg 80%
    01:00 +3°C° 0 mm 1 mps 744 mmHg 82%
    02:00 +3°C° 0 mm 1 mps 744 mmHg 83%
    03:00 +3°C° 0 mm 1 mps 744 mmHg 84%
    04:00 +3°C° 0 mm 1 mps 744 mmHg 86%
    05:00 +2°C° 0 mm 1 mps 743 mmHg 87%
    06:00 +4°C° 0 mm 1 mps 744 mmHg 82%
    07:00 +5°C° 0 mm 1 mps 744 mmHg 78%
    08:00 +6°C° 0 mm 1 mps 744 mmHg 73%
    09:00 +7°C° 0.1 mm 1 mps 744 mmHg 68%
    10:00 +8°C° 0.1 mm 1 mps 743 mmHg 63%
    11:00 +9°C° 0.1 mm 2 mps 743 mmHg 58%
    12:00 +9°C° 0.1 mm 2 mps 743 mmHg 56%
    13:00 +9°C° 0.1 mm 2 mps 743 mmHg 53%
    14:00 +10°C° 0.1 mm 2 mps 743 mmHg 51%
    15:00 +9°C° 0 mm 2 mps 743 mmHg 58%
    16:00 +9°C° 0 mm 1 mps 743 mmHg 64%
    17:00 +8°C° 0 mm 1 mps 743 mmHg 70%
    18:00 +6°C° 0 mm 2 mps 743 mmHg 77%
    19:00 +5°C° 0 mm 2 mps 743 mmHg 83%
    20:00 +4°C° 0 mm 2 mps 743 mmHg 89%
    21:00 +3°C° 0 mm 2 mps 743 mmHg 91%
    22:00 +2°C° 0 mm 2 mps 743 mmHg 94%
    23:00 +2°C° 0 mm 2 mps 743 mmHg 96%

    Day after tomorrow, 21 September, Saturday

    Time Temperature Precipitation Wind Pressure Humidity
    00:00 +1°C° 0 mm 2 mps 744 mmHg 96%
    01:00 +1°C° 0 mm 2 mps 744 mmHg 97%
    02:00 -1°C° 0 mm 2 mps 744 mmHg 98%
    03:00 -1°C° 0 mm 2 mps 744 mmHg 97%
    04:00 -1°C° 0 mm 2 mps 744 mmHg 97%
    05:00 -2°C° 0 mm 2 mps 744 mmHg 97%
    06:00 +1°C° 0 mm 2 mps 744 mmHg 90%
    07:00 +2°C° 0 mm 2 mps 744 mmHg 84%
    08:00 +3°C° 0 mm 2 mps 744 mmHg 77%
    09:00 +5°C° 0 mm 2 mps 744 mmHg 69%
    10:00 +6°C° 0 mm 2 mps 744 mmHg 62%
    11:00 +7°C° 0 mm 2 mps 743 mmHg 54%
    12:00 +8°C° 0 mm 3 mps 743 mmHg 53%
    13:00 +8°C° 0 mm 3 mps 743 mmHg 52%
    14:00 +8°C° 0 mm 3 mps 742 mmHg 52%
    15:00 +7°C° 0 mm 3 mps 741 mmHg 57%
    16:00 +5°C° 0 mm 3 mps 741 mmHg 63%
    17:00 +5°C° 0 mm 3 mps 740 mmHg 68%
    18:00 +4°C° 0 mm 3 mps 739 mmHg 74%
    19:00 +4°C° 0 mm 3 mps 739 mmHg 80%
    20:00 +3°C° 0 mm 4 mps 738 mmHg 85%
    21:00 +3°C° 0.1 mm 4 mps 737 mmHg 87%
    22:00 +3°C° 0.1 mm 4 mps 735 mmHg 89%
    23:00 +3°C° 0.1 mm 4 mps 734 mmHg 91%

    22 September, Sunday

    Time Temperature Precipitation Wind Pressure Humidity
    00:00 +3°C° 1.1 mm 4 mps 732 mmHg 93%
    01:00 +4°C° 1.1 mm 4 mps 731 mmHg 95%
    02:00 +4°C° 1.1 mm 4 mps 729 mmHg 97%
    03:00 +4°C° 1.4 mm 4 mps 728 mmHg 95%
    04:00 +5°C° 1.4 mm 5 mps 727 mmHg 93%
    05:00 +5°C° 1.4 mm 5 mps 726 mmHg 91%
    06:00 +4°C° 0.7 mm 6 mps 726 mmHg 92%
    07:00 +3°C° 0.7 mm 7 mps 727 mmHg 93%
    08:00 +1°C° 0.7 mm 8 mps 727 mmHg 94%
    09:00 +1°C° 0.7 mm 9 mps 729 mmHg 94%
    10:00 +1°C° 0.7 mm 9 mps 731 mmHg 94%
    11:00 0°C° 0.7 mm 9 mps 733 mmHg 94%
    12:00 0°C° 0.1 mm 9 mps 734 mmHg 92%
    13:00 0°C° 0.1 mm 8 mps 736 mmHg 90%
    14:00 0°C° 0.1 mm 8 mps 738 mmHg 87%
    15:00 0°C° 0.1 mm 7 mps 739 mmHg 86%
    16:00 +2°C° 0.1 mm 6 mps 740 mmHg 84%
    17:00 +2°C° 0.1 mm 5 mps 741 mmHg 83%
    18:00 +1°C° 0 mm 5 mps 741 mmHg 85%
    19:00 0°C° 0 mm 4 mps 742 mmHg 87%
    20:00 -1°C° 0 mm 4 mps 742 mmHg 89%
    21:00 -1°C° 0 mm 4 mps 743 mmHg 90%
    22:00 -1°C° 0 mm 4 mps 743 mmHg 91%
    23:00 -1°C° 0 mm 4 mps 743 mmHg 92%

    23 September, Monday

    Time Temperature Precipitation Wind Pressure Humidity
    00:00 -2°C° 0 mm 4 mps 744 mmHg 93%
    01:00 -2°C° 0 mm 4 mps 744 mmHg 93%
    02:00 -2°C° 0 mm 4 mps 744 mmHg 93%
    03:00 -3°C° 0 mm 4 mps 744 mmHg 94%
    04:00 -3°C° 0 mm 4 mps 745 mmHg 94%
    05:00 -2°C° 0 mm 3 mps 745 mmHg 95%
    06:00 -1°C° 0 mm 3 mps 745 mmHg 91%
    07:00 0°C° 0 mm 3 mps 745 mmHg 87%
    08:00 +1°C° 0 mm 3 mps 746 mmHg 83%
    09:00 +2°C° 0 mm 3 mps 746 mmHg 76%
    10:00 +3°C° 0 mm 3 mps 746 mmHg 69%
    11:00 +4°C° 0 mm 3 mps 746 mmHg 62%
    12:00 +5°C° 0 mm 4 mps 746 mmHg 61%
    13:00 +5°C° 0 mm 4 mps 745 mmHg 60%
    14:00 +5°C° 0 mm 4 mps 745 mmHg 59%
    15:00 +5°C° 0 mm 3 mps 745 mmHg 64%
    16:00 +4°C° 0 mm 3 mps 745 mmHg 70%
    17:00 +4°C° 0 mm 2 mps 745 mmHg 76%
    18:00 +3°C° 0 mm 2 mps 745 mmHg 80%
    19:00 +2°C° 0 mm 2 mps 744 mmHg 84%
    20:00 +1°C° 0 mm 2 mps 744 mmHg 89%
    21:00 +1°C° 0 mm 2 mps 744 mmHg 91%
    22:00 -1°C° 0 mm 2 mps 744 mmHg 92%
    23:00 -1°C° 0 mm 2 mps 744 mmHg 94%

    24 September, Tuesday

    Time Temperature Precipitation Wind Pressure Humidity
    00:00 -1°C° 0 mm 2 mps 744 mmHg 95%
    01:00 -2°C° 0 mm 2 mps 744 mmHg 95%
    02:00 -2°C° 0 mm 2 mps 743 mmHg 96%
    03:00 0°C° 0 mm 1 mps 743 mmHg 96%
    04:00 0°C° 0 mm 1 mps 743 mmHg 96%
    05:00 -1°C° 0 mm 1 mps 743 mmHg 97%
    06:00 +1°C° 0 mm 1 mps 743 mmHg 91%
    07:00 +2°C° 0 mm 0 mps 743 mmHg 85%
    08:00 +3°C° 0 mm 0 mps 742 mmHg 80%
    09:00 +5°C° 0 mm 0 mps 742 mmHg 73%
    10:00 +6°C° 0 mm 0 mps 742 mmHg 67%
    11:00 +7°C° 0 mm 0 mps 743 mmHg 60%
    12:00 +8°C° 0 mm 1 mps 742 mmHg 59%
    13:00 +8°C° 0 mm 1 mps 742 mmHg 58%
    14:00 +8°C° 0 mm 1 mps 742 mmHg 57%
    15:00 +8°C° 0 mm 1 mps 742 mmHg 61%
    16:00 +7°C° 0 mm 1 mps 742 mmHg 65%
    17:00 +6°C° 0 mm 1 mps 742 mmHg 69%
    18:00 +6°C° 0 mm 1 mps 742 mmHg 70%
    19:00 +5°C° 0 mm 1 mps 742 mmHg 71%
    20:00 +4°C° 0 mm 1 mps 742 mmHg 72%
    21:00 +4°C° 0 mm 1 mps 742 mmHg 72%
    22:00 +4°C° 0 mm 1 mps 742 mmHg 73%
    23:00 +4°C° 0 mm 1 mps 742 mmHg 73%
    Show more